Wheaton NDB, MN

4:31 AM CST on November 18, 2017 (GMT -0600)
Wheaton Municipal

Weather History for KETH - November, 2013

Change the Weather History Date:

Saturday, November 30, 2013

  Actual Average Record
Temperature  
Mean Temperature 25 °F -  
Max Temperature 33 °F 33 °F 53 °F (1990)
Min Temperature 17 °F 16 °F -16 °F (1964)
Degree Days  
Heating Degree Days 40    
Moisture  
Dew Point 23 °F    
Average Humidity 84    
Maximum Humidity 100    
Minimum Humidity 70    
Precipitation  
Precipitation 0.00 in - - ()
Sea Level Pressure  
Sea Level Pressure 30.12 in    
Wind  
Wind Speed 6 mph (NW)    
Max Wind Speed 14 mph    
Max Gust Speed -    
Visibility 9 miles    
Events      
Averages and records for this station are not official NWS values.
T = Trace of Precipitation, MM = Missing Value Source: NWS Daily Summary

Daily Weather History Graph

Daily Weather History Graph

Search for Another Location

Airport or City:

Trip Planner

Search our weather history database for the weather conditions in past years. The results will help you decide how hot, cold, wet, or windy it might be!

Date:

Astronomy

Nov. 30, 2013 Rise Set
Actual Time 7:45 AM CST 4:43 PM CST
Civil Twilight 7:12 AM CST 5:17 PM CST
Nautical Twilight 6:35 AM CST 5:54 PM CST
Astronomical Twilight 5:59 AM CST 6:30 PM CST
Moon 4:51 AM CST (11/30) 3:14 PM CST (11/30)
Length of Visible Light 10h 05m
Length of Day
8h 57m
Waning Crescent, 7% of the Moon is Illuminated
Nov 30
Waning Crescent
Dec 2
New
Dec 9
First Quarter
Dec 17
Full
Dec 25
Last Quarter

Hourly Weather History & Observations

Time (CST) Temp. Windchill Dew Point Humidity Pressure Visibility Wind Dir Wind Speed Gust Speed Precip Events Conditions
12:14 AM 26.6 °F 17.5 °F 21.2 °F 80% 30.02 in 10.0 mi SE 9.2 mph - N/A   Clear
12:34 AM 24.8 °F 16.1 °F 19.4 °F 80% 30.01 in 10.0 mi SSE 8.1 mph - N/A   Clear
12:54 AM 24.8 °F 16.9 °F 19.4 °F 80% 30.01 in 10.0 mi SE 6.9 mph - N/A   Clear
1:14 AM 23.0 °F - 19.4 °F 86% 30.02 in 10.0 mi Calm Calm - N/A   Clear
1:34 AM 24.8 °F 20.5 °F 19.4 °F 80% 30.02 in 10.0 mi South 3.5 mph - N/A   Clear
1:54 AM 24.8 °F 20.5 °F 19.4 °F 80% 30.02 in 10.0 mi South 3.5 mph - N/A   Clear
2:14 AM 21.2 °F - 17.6 °F 86% 30.02 in 10.0 mi Calm Calm - N/A   Clear
2:34 AM 21.2 °F - 19.4 °F 93% 30.02 in 10.0 mi Calm Calm - N/A   Clear
2:54 AM 21.2 °F - 19.4 °F 93% 30.02 in 10.0 mi Calm Calm - N/A   Clear
3:14 AM 21.2 °F - 17.6 °F 86% 30.03 in 10.0 mi Calm Calm - N/A   Clear
3:34 AM 19.4 °F - 17.6 °F 93% 30.03 in 10.0 mi Calm Calm - N/A   Clear
3:54 AM 19.4 °F - 17.6 °F 93% 30.03 in 10.0 mi Calm Calm - N/A   Clear
4:14 AM 17.6 °F 10.7 °F 15.8 °F 93% 30.03 in 7.0 mi West 4.6 mph - N/A   Clear
4:34 AM 19.4 °F 11.5 °F 17.6 °F 93% 30.03 in 7.0 mi West 5.8 mph - N/A   Clear
4:54 AM 21.2 °F 16.4 °F 21.2 °F 100% 30.04 in 10.0 mi WNW 3.5 mph - N/A   Clear
5:14 AM 23.0 °F 15.8 °F 21.2 °F 93% 30.04 in 10.0 mi WNW 5.8 mph - N/A   Clear
5:34 AM 23.0 °F 15.8 °F 21.2 °F 93% 30.03 in 10.0 mi WNW 5.8 mph - N/A   Clear
5:54 AM 23.0 °F 17.0 °F 21.2 °F 93% 30.04 in 10.0 mi West 4.6 mph - N/A   Clear
6:14 AM 23.0 °F 17.0 °F 21.2 °F 93% 30.04 in 10.0 mi WNW 4.6 mph - N/A   Clear
6:34 AM 24.8 °F 17.9 °F 21.2 °F 86% 30.06 in 10.0 mi WNW 5.8 mph - N/A   Clear
6:54 AM 24.8 °F 16.9 °F 21.2 °F 86% 30.07 in 10.0 mi WNW 6.9 mph - N/A   Clear
7:14 AM 26.6 °F 18.2 °F 23.0 °F 86% 30.08 in 10.0 mi WNW 8.1 mph - N/A   Clear
7:34 AM 26.6 °F 18.2 °F 23.0 °F 86% 30.09 in 10.0 mi WNW 8.1 mph - N/A   Clear
7:54 AM 26.6 °F 19.1 °F 23.0 °F 86% 30.09 in 10.0 mi WNW 6.9 mph - N/A   Clear
8:14 AM 26.6 °F 19.1 °F 23.0 °F 86% 30.09 in 10.0 mi WNW 6.9 mph - N/A   Clear
8:34 AM 26.6 °F 19.1 °F 23.0 °F 86% 30.11 in 10.0 mi WNW 6.9 mph - N/A   Clear
8:54 AM 26.6 °F 19.1 °F 24.8 °F 93% 30.12 in 7.0 mi WNW 6.9 mph - N/A   Clear
9:14 AM 28.4 °F 21.2 °F 24.8 °F 86% 30.12 in 10.0 mi NW 6.9 mph - N/A   Clear
9:34 AM 30.2 °F 21.3 °F 26.6 °F 86% 30.13 in 10.0 mi NNW 10.4 mph - N/A   Scattered Clouds
9:54 AM 28.4 °F 18.0 °F 24.8 °F 86% 30.13 in 10.0 mi NW 12.7 mph - N/A   Mostly Cloudy
10:14 AM 28.4 °F 19.1 °F 24.8 °F 86% 30.14 in 10.0 mi NNW 10.4 mph - N/A   Scattered Clouds
10:34 AM 30.2 °F 20.8 °F 24.8 °F 80% 30.14 in 10.0 mi NW 11.5 mph - N/A   Scattered Clouds
10:54 AM 30.2 °F 19.8 °F 24.8 °F 80% 30.14 in 10.0 mi NNW 13.8 mph - N/A   Scattered Clouds
11:14 AM 30.2 °F 19.8 °F 24.8 °F 80% 30.14 in 10.0 mi NW 13.8 mph - N/A   Clear
11:34 AM 30.2 °F 19.8 °F 24.8 °F 80% 30.13 in 10.0 mi NW 13.8 mph - N/A   Clear
11:54 AM 30.2 °F 20.2 °F 24.8 °F 80% 30.13 in 10.0 mi NW 12.7 mph - N/A   Clear
12:14 PM 30.2 °F 20.8 °F 24.8 °F 80% 30.14 in 10.0 mi NW 11.5 mph - N/A   Scattered Clouds
12:34 PM 32.0 °F 23.0 °F 24.8 °F 75% 30.14 in 10.0 mi NW 11.5 mph - N/A   Scattered Clouds
12:54 PM 32.0 °F 24.2 °F 24.8 °F 75% 30.14 in 10.0 mi NW 9.2 mph - N/A   Scattered Clouds
1:14 PM 33.8 °F 25.8 °F 24.8 °F 70% 30.14 in 10.0 mi NW 10.4 mph - N/A   Mostly Cloudy
1:34 PM 33.8 °F 25.3 °F 24.8 °F 70% 30.14 in 10.0 mi NW 11.5 mph - N/A   Overcast
1:54 PM 33.8 °F 25.8 °F 26.6 °F 75% 30.13 in 10.0 mi NW 10.4 mph - N/A   Overcast
2:14 PM 33.8 °F 26.4 °F 26.6 °F 75% 30.13 in 10.0 mi NNW 9.2 mph - N/A   Mostly Cloudy
2:34 PM 33.8 °F 25.3 °F 26.6 °F 75% 30.13 in 10.0 mi NW 11.5 mph - N/A   Scattered Clouds
2:54 PM 33.8 °F 25.8 °F 26.6 °F 75% 30.14 in 10.0 mi NNW 10.4 mph - N/A   Clear
3:14 PM 33.8 °F 26.4 °F 26.6 °F 75% 30.14 in 10.0 mi NNW 9.2 mph - N/A   Clear
3:34 PM 33.8 °F 25.3 °F 24.8 °F 70% 30.14 in 10.0 mi NNW 11.5 mph - N/A   Clear
3:54 PM 33.8 °F 26.4 °F 24.8 °F 70% 30.15 in 10.0 mi NNW 9.2 mph - N/A   Scattered Clouds
4:14 PM 32.0 °F 25.6 °F 24.8 °F 75% 30.16 in 10.0 mi NNW 6.9 mph - N/A   Mostly Cloudy
4:34 PM 32.0 °F 24.8 °F 24.8 °F 75% 30.16 in 10.0 mi North 8.1 mph - N/A   Mostly Cloudy
4:54 PM 30.2 °F 23.4 °F 24.8 °F 80% 30.16 in 10.0 mi North 6.9 mph - N/A   Mostly Cloudy
5:14 PM 30.2 °F 23.4 °F 24.8 °F 80% 30.17 in 7.0 mi North 6.9 mph - N/A   Scattered Clouds
5:34 PM 28.4 °F 21.2 °F 24.8 °F 86% 30.17 in 7.0 mi North 6.9 mph - N/A   Clear
5:54 PM 28.4 °F 21.2 °F 23.0 °F 80% 30.19 in 7.0 mi North 6.9 mph - N/A   Clear
6:14 PM 28.4 °F 21.2 °F 23.0 °F 80% 30.19 in 7.0 mi North 6.9 mph - N/A   Scattered Clouds
6:34 PM 28.4 °F 23.3 °F 23.0 °F 80% 30.19 in 7.0 mi North 4.6 mph - N/A   Clear
6:54 PM 26.6 °F 22.6 °F 23.0 °F 86% 30.19 in 7.0 mi North 3.5 mph - N/A   Clear
7:14 PM 26.6 °F 22.6 °F 23.0 °F 86% 30.20 in 7.0 mi North 3.5 mph - N/A   Clear
7:34 PM 26.6 °F 20.0 °F 23.0 °F 86% 30.20 in 7.0 mi North 5.8 mph - N/A   Clear
7:54 PM 26.6 °F 20.0 °F 23.0 °F 86% 30.20 in 7.0 mi North 5.8 mph - N/A   Clear
8:14 PM 26.6 °F 21.2 °F 23.0 °F 86% 30.20 in 5.0 mi North 4.6 mph - N/A   Clear
8:34 PM 26.6 °F 21.2 °F 23.0 °F 86% 30.20 in 5.0 mi North 4.6 mph - N/A   Clear
8:54 PM 26.6 °F 21.2 °F 23.0 °F 86% 30.20 in 5.0 mi NNW 4.6 mph - N/A   Clear
9:14 PM 24.8 °F 19.1 °F 21.2 °F 86% 30.20 in 5.0 mi North 4.6 mph - N/A   Clear
9:34 PM 24.8 °F 17.9 °F 21.2 °F 86% 30.21 in 5.0 mi North 5.8 mph - N/A   Clear
9:54 PM 24.8 °F - 21.2 °F 86% 30.22 in 5.0 mi Calm Calm - N/A   Clear
10:14 PM 23.0 °F - 21.2 °F 93% 30.22 in 5.0 mi Calm Calm - N/A   Mostly Cloudy
10:34 PM 23.0 °F 18.4 °F 21.2 °F 93% 30.22 in 5.0 mi North 3.5 mph - N/A   Overcast
10:54 PM 23.0 °F 17.0 °F 21.2 °F 93% 30.23 in 5.0 mi North 4.6 mph - N/A   Overcast
11:14 PM 24.8 °F 17.9 °F 21.2 °F 86% 30.22 in 5.0 mi NNE 5.8 mph - N/A   Overcast
11:34 PM 24.8 °F 17.9 °F 21.2 °F 86% 30.22 in 5.0 mi NNE 5.8 mph - N/A   Overcast
11:54 PM 23.0 °F 14.7 °F 21.2 °F 93% 30.23 in 5.0 mi North 6.9 mph - N/A   Overcast